Regional Weather Roundup
Issued by NWS

Home | Current Version | Previous Version | Text Only | Print | Product List | Glossary Off
Versions: 1 2 3 4 5 6 7 8 9 10 11 12 13 14 15 16 17 18 19 20 21 22 23 24 25 26 27 28 29 30 31 32 33 34 35 36 37 38 39 40 41 42 43 44 45 46 47 48 49 50

140
ASUS43 KBIS 232210
RWRND

NORTH DAKOTA REGIONAL WEATHER ROUNDUP
NATIONAL WEATHER SERVICE BISMARCK ND
400 PM CST TUE JAN 23 2018

NOTE: "FAIR" INDICATES FEW OR NO CLOUDS BELOW 12,000 FEET WITH NO
SIGNIFICANT WEATHER AND/OR OBSTRUCTIONS TO VISIBILITY.


NDZ001>003-009>011-017-232300-
NORTHWEST NORTH DAKOTA

CITY           SKY/WX    TMP DP  RH WIND       PRES   REMARKS
WILLISTON      SUNNY     29  20  69 W10       30.11R WCI  20
MINOT          CLOUDY    22  18  85 W7        30.10R WCI  13
MINOT AFB      CLOUDY    21  19  91 W8        30.09R WCI  11
$$

NDZ018>021-031>035-040>046-232300-
SOUTHWEST NORTH DAKOTA

CITY           SKY/WX    TMP DP  RH WIND       PRES   REMARKS
BISMARCK       SUNNY     34  24  67 NW12      30.11R
DICKINSON      SUNNY     34  23  64 W13       30.07R
GARRISON         N/A     23  18  81 N6        30.10R WCI  16
HETTINGER ARPT SUNNY     36  22  56 W16       30.11R
$$

NDZ004>008-012>016-024-026-027-054-232300-
NORTHEAST NORTH DAKOTA

CITY           SKY/WX    TMP DP  RH WIND       PRES   REMARKS
GRAND FORKS    CLOUDY    23  21  92 S5        30.10R WCI  17
GRND FRKS AFB  CLOUDY    23  20  88 S6        30.09R WCI  16
DEVILS LAKE    CLOUDY    20  18  92 NW15      30.08R WCI   6
$$

NDZ022-023-025-028>030-036>039-047>053-232300-
SOUTHEAST NORTH DAKOTA

CITY           SKY/WX    TMP DP  RH WIND       PRES   REMARKS
FARGO          CLOUDY    23  20  88 SW7       30.12R WCI  15
JAMESTOWN      CLOUDY    24  21  88 NW16      30.08R WCI  11
$$





USA.gov is the U.S. government's official web portal to all federal, state and local government web resources and services.